"Pseudo-MPEC" for P10SBuP

Created 2019 Oct 18 9:07:07 UT using Find_Orb

Click here for an explanation of pseudo-MPECs

 
 Astrometry: 
     P10SBuP  C2019 10 08Ifhc7'@mAstrometry^r0us3EAVTredacted;K/Snb,On$Ja'jOEF51
     P10SBuP  C2019 10 08(GL:1tK`G8+Bn:mXme/q/#OYd1$mV,click:\bUhereG\Z.]rmYAF51
     P10SBuP  C2019 10 08-STlYccBgmV+$ZSZ@mp(H\L!UsZP':)[,EJ^f=:Kforut$UnLKvtF51
     P10SBuP  C2019 10 08C:WIofC)pJDy_P;^TS$qnexplanationPFB.!7Z'g/$(@Nw`q[VuF51

Station data:
(F51) Pan-STARRS 1, Haleakala  (N20.707235 W156.255910)  US/Hawaii.
   Observers N. Primak, A. Schultz, S. Watters, J. Thiel, T. Goggia. Measurer
   PS1 Science Consortium. 1.8-m Ritchey-Chrétien + CCD.

Orbital elements:  P10SBuP
   Perihelion 2019 Apr 13.914078 +/- 641 TT = 21:56:16 (JD 2458587.414078)
Epoch 2019 Oct  9.0 TT = JDT 2458765.5   Earth MOID: 0.4765   Ma: 0.0714
M  72.29980794 +/- 90               (J2000 ecliptic)          AutoNEOCP
n   0.40598272 +/- 0.311            Peri.  197.88491 +/- 80
a   1.80633243 +/- 0.922            Node   105.78643 +/- 59
e   0.1779699 +/- 0.246             Incl.   27.23098 +/- 16
P   2.43/886.72d           H 19.8   G  0.15   U 12.0  SR
q 1.48485955 +/- 1.74    Q 2.12780531 +/- 54
From 4 observations 2019 Oct. 8 (49.6 min); mean residual 0".08
Residuals in arcseconds: 
191008 F51  .05-  .08-    191008 F51  .07-  .03-    
191008 F51  .12+  .13+    191008 F51  .01+  .02-    

Ephemerides (geocentric):
Date (UTC) HH   RA              Dec         delta   r     elong  mag " sig PA
---- -- -- --  -------------   -----------  ------ ------ -----  --- ---- ---
2019 10 18 09  04 52 32.091   -22 41 33.15  1.0546 1.7855 121.0 22.4  29d  14
2019 10 18 10  04 52 30.612   -22 41 48.37  1.0545 1.7856 121.0 22.4  29d  14
2019 10 18 11  04 52 29.129   -22 42 03.55  1.0544 1.7857 121.1 22.4  29d  14
2019 10 18 12  04 52 27.640   -22 42 18.70  1.0542 1.7858 121.1 22.4  29d  14
2019 10 18 13  04 52 26.146   -22 42 33.83  1.0541 1.7859 121.1 22.4  29d  14
2019 10 18 14  04 52 24.647   -22 42 48.93  1.0539 1.7859 121.1 22.4  29d  14
2019 10 18 15  04 52 23.143   -22 43 03.99  1.0538 1.7860 121.2 22.4  29d  14
2019 10 18 16  04 52 21.634   -22 43 19.03  1.0536 1.7861 121.2 22.4  29d  14
2019 10 18 17  04 52 20.120   -22 43 34.03  1.0535 1.7862 121.2 22.4  29d  14
2019 10 18 18  04 52 18.601   -22 43 49.01  1.0533 1.7863 121.2 22.4  29d  14
2019 10 18 19  04 52 17.076   -22 44 03.96  1.0532 1.7864 121.3 22.4  29d  14
2019 10 18 20  04 52 15.547   -22 44 18.88  1.0530 1.7865 121.3 22.4  29d  14
2019 10 18 21  04 52 14.012   -22 44 33.76  1.0529 1.7866 121.3 22.4  29d  14
2019 10 18 22  04 52 12.473   -22 44 48.62  1.0528 1.7867 121.4 22.4  29d  14
2019 10 18 23  04 52 10.928   -22 45 03.45  1.0526 1.7868 121.4 22.4  29d  14
2019 10 19 00  04 52 09.378   -22 45 18.25  1.0525 1.7869 121.4 22.4  29d  14
2019 10 19 01  04 52 07.823   -22 45 33.01  1.0523 1.7870 121.4 22.4  29d  14
2019 10 19 02  04 52 06.263   -22 45 47.75  1.0522 1.7871 121.5 22.4  29d  14
2019 10 19 03  04 52 04.698   -22 46 02.46  1.0520 1.7872 121.5 22.4  29d  14
2019 10 19 04  04 52 03.128   -22 46 17.14  1.0519 1.7873 121.5 22.4  29d  14
2019 10 19 05  04 52 01.553   -22 46 31.78  1.0518 1.7874 121.5 22.4  29d  14
2019 10 19 06  04 51 59.972   -22 46 46.40  1.0516 1.7875 121.6 22.4  29d  14
2019 10 19 07  04 51 58.387   -22 47 00.98  1.0515 1.7876 121.6 22.4  29d  14
2019 10 19 08  04 51 56.796   -22 47 15.54  1.0513 1.7877 121.6 22.4  29d  14
2019 10 19 09  04 51 55.201   -22 47 30.06  1.0512 1.7878 121.6 22.4  29d  14
2019 10 19 10  04 51 53.600   -22 47 44.56  1.0510 1.7879 121.7 22.4  29d  14
2019 10 19 11  04 51 51.994   -22 47 59.02  1.0509 1.7880 121.7 22.4  29d  14
2019 10 19 12  04 51 50.383   -22 48 13.45  1.0508 1.7881 121.7 22.4  29d  14
2019 10 19 13  04 51 48.767   -22 48 27.85  1.0506 1.7882 121.8 22.4  29d  14
2019 10 19 14  04 51 47.146   -22 48 42.22  1.0505 1.7882 121.8 22.4  29d  14
2019 10 19 15  04 51 45.520   -22 48 56.56  1.0503 1.7883 121.8 22.4  29d  14
2019 10 19 16  04 51 43.889   -22 49 10.87  1.0502 1.7884 121.8 22.4  29d  14
2019 10 19 17  04 51 42.253   -22 49 25.14  1.0500 1.7885 121.9 22.4  29d  14
2019 10 19 18  04 51 40.611   -22 49 39.39  1.0499 1.7886 121.9 22.4  29d  14
2019 10 19 19  04 51 38.965   -22 49 53.60  1.0498 1.7887 121.9 22.4  29d  14
2019 10 19 20  04 51 37.313   -22 50 07.78  1.0496 1.7888 121.9 22.4  29d  14
2019 10 19 21  04 51 35.657   -22 50 21.93  1.0495 1.7889 122.0 22.4  29d  14
2019 10 19 22  04 51 33.995   -22 50 36.05  1.0493 1.7890 122.0 22.4  29d  14
2019 10 19 23  04 51 32.328   -22 50 50.14  1.0492 1.7891 122.0 22.4  29d  14
2019 10 20 00  04 51 30.657   -22 51 04.20  1.0491 1.7892 122.0 22.4  29d  14
2019 10 20 01  04 51 28.980   -22 51 18.22  1.0489 1.7893 122.1 22.4  29d  14
2019 10 20 02  04 51 27.298   -22 51 32.21  1.0488 1.7894 122.1 22.4  29d  14
2019 10 20 03  04 51 25.611   -22 51 46.17  1.0486 1.7895 122.1 22.4  29d  14
2019 10 20 04  04 51 23.918   -22 52 00.10  1.0485 1.7896 122.2 22.4  29d  14
2019 10 20 05  04 51 22.221   -22 52 14.00  1.0484 1.7897 122.2 22.4  29d  14
2019 10 20 06  04 51 20.519   -22 52 27.86  1.0482 1.7898 122.2 22.4  29d  14
2019 10 20 07  04 51 18.812   -22 52 41.70  1.0481 1.7899 122.2 22.4  29d  14
2019 10 20 08  04 51 17.099   -22 52 55.50  1.0479 1.7900 122.3 22.4  29d  14